EWG14PJ LDRI-EDDL

Flight info

Callsign EWG14PJ
Flight time 1h 28m
Altitude 36000
Route CRE DCT PEVAL DCT SOTOV DCT KPT DCT VEKIR DCT HAREM/N0444F350 DCT LOHRE/N0447F360 Z850 ARPEG/N0408F240 Z850 ADEMI T854 DOMUX DOMUX1A
Aircraft A319/M-SDE3FGHIRWY/LB1

Departure

Time 2026-05-06 15:26
Airport Rijeka Airport (LDRI)

Arrival

Time 2026-05-06 16:55
Airport Düsseldorf Airport (EDDL)
Time Latitude Longitude Altitude Speed Heading
2026-05-06 15:06 45.21914 14.57155 266 ft 0 kts 106°
2026-05-06 15:19 45.21913 14.57156 265 ft 0 kts 117°
2026-05-06 15:20 45.21910 14.57156 265 ft 0 kts 150°
2026-05-06 15:20 45.21907 14.57152 265 ft 0 kts 192°
2026-05-06 15:20 45.21907 14.57148 265 ft 0 kts 228°
2026-05-06 15:20 45.21908 14.57142 265 ft 2 kts 262°
2026-05-06 15:21 45.21914 14.57123 265 ft 4 kts 291°
2026-05-06 15:21 45.21898 14.57095 265 ft 6 kts 173°
2026-05-06 15:21 45.21849 14.57141 265 ft 11 kts 143°
2026-05-06 15:21 45.21780 14.57204 264 ft 12 kts 160°
2026-05-06 15:22 45.21692 14.57202 264 ft 13 kts 184°
2026-05-06 15:22 45.21602 14.57180 263 ft 12 kts 235°
2026-05-06 15:22 45.21654 14.57093 263 ft 14 kts 325°
2026-05-06 15:22 45.21741 14.57004 264 ft 17 kts 323°
2026-05-06 15:23 45.21849 14.56892 263 ft 21 kts 324°
2026-05-06 15:23 45.21973 14.56764 266 ft 23 kts 324°
2026-05-06 15:23 45.22063 14.56671 267 ft 25 kts 324°
2026-05-06 15:23 45.22209 14.56519 270 ft 27 kts 323°
2026-05-06 15:24 45.22362 14.56359 271 ft 27 kts 324°
2026-05-06 15:24 45.22495 14.56222 271 ft 10 kts 323°
2026-05-06 15:24 45.22559 14.56206 272 ft 9 kts 353°
2026-05-06 15:24 45.22563 14.56161 271 ft 5 kts 214°
2026-05-06 15:25 45.22543 14.56172 271 ft 0 kts 144°
2026-05-06 15:25 45.22375 14.56346 271 ft 67 kts 144°
2026-05-06 15:25 45.21814 14.56926 263 ft 130 kts 144°
2026-05-06 15:26 45.20982 14.57787 576 ft 151 kts 144°
2026-05-06 15:26 45.20138 14.58650 1260 ft 149 kts 145°
2026-05-06 15:26 45.19205 14.59330 1724 ft 163 kts 174°
2026-05-06 15:26 45.18046 14.58878 2085 ft 188 kts 203°
2026-05-06 15:27 45.16794 14.58040 2447 ft 210 kts 202°
2026-05-06 15:27 45.15401 14.57126 2886 ft 232 kts 202°
2026-05-06 15:27 45.13885 14.56148 3595 ft 245 kts 204°
2026-05-06 15:27 45.12316 14.55152 4550 ft 248 kts 205°
2026-05-06 15:28 45.10747 14.54170 5524 ft 251 kts 205°
2026-05-06 15:28 45.09238 14.52926 6435 ft 253 kts 223°
2026-05-06 15:28 45.08225 14.50904 7308 ft 256 kts 247°
2026-05-06 15:28 45.07958 14.48392 8178 ft 266 kts 272°
2026-05-06 15:29 45.08379 14.45810 9058 ft 272 kts 281°
2026-05-06 15:29 45.08888 14.43218 9943 ft 276 kts 281°
2026-05-06 15:29 45.09416 14.40546 10466 ft 292 kts 281°
2026-05-06 15:29 45.09980 14.37662 10725 ft 315 kts 282°
2026-05-06 15:30 45.10576 14.34601 11204 ft 328 kts 282°
2026-05-06 15:30 45.11186 14.31457 11910 ft 333 kts 282°
2026-05-06 15:30 45.11801 14.28279 12689 ft 336 kts 282°
2026-05-06 15:30 45.12416 14.25068 13462 ft 340 kts 282°
2026-05-06 15:31 45.13036 14.21826 14158 ft 343 kts 282°
2026-05-06 15:31 45.13664 14.18538 14818 ft 348 kts 282°
2026-05-06 15:31 45.14297 14.15221 15493 ft 351 kts 281°
2026-05-06 15:32 45.15581 14.08484 16802 ft 358 kts 281°
2026-05-06 15:32 45.16231 14.05060 17456 ft 361 kts 281°
2026-05-06 15:32 45.16884 14.01609 18103 ft 364 kts 281°
2026-05-06 15:32 45.17542 13.98116 18663 ft 368 kts 281°
2026-05-06 15:33 45.18205 13.94589 19222 ft 372 kts 281°
2026-05-06 15:33 45.18872 13.91039 19778 ft 375 kts 281°
2026-05-06 15:33 45.19547 13.87456 20363 ft 378 kts 281°
2026-05-06 15:33 45.20228 13.83837 20952 ft 380 kts 281°
2026-05-06 15:34 45.20911 13.80200 21504 ft 383 kts 280°
2026-05-06 15:34 45.21600 13.76531 22047 ft 386 kts 280°
2026-05-06 15:34 45.22291 13.72835 22583 ft 389 kts 280°
2026-05-06 15:34 45.22985 13.69106 23099 ft 392 kts 280°
2026-05-06 15:35 45.23683 13.65349 23599 ft 395 kts 280°
2026-05-06 15:35 45.24386 13.61565 24034 ft 398 kts 280°
2026-05-06 15:35 45.25090 13.57759 24490 ft 399 kts 280°
2026-05-06 15:35 45.25793 13.53944 24933 ft 400 kts 279°
2026-05-06 15:36 45.26499 13.50116 25370 ft 402 kts 279°
2026-05-06 15:36 45.27207 13.46278 25807 ft 403 kts 279°
2026-05-06 15:36 45.27918 13.42422 26242 ft 404 kts 279°
2026-05-06 15:36 45.28629 13.38558 26678 ft 405 kts 279°
2026-05-06 15:37 45.29341 13.34671 27100 ft 406 kts 279°
2026-05-06 15:37 45.30069 13.30781 27522 ft 409 kts 282°
2026-05-06 15:37 45.31157 13.26987 27933 ft 418 kts 291°
2026-05-06 15:37 45.32719 13.23507 28332 ft 428 kts 302°
2026-05-06 15:38 45.34776 13.20384 28721 ft 438 kts 312°
2026-05-06 15:38 45.37121 13.17569 29087 ft 441 kts 313°
2026-05-06 15:38 45.39474 13.14751 29443 ft 443 kts 313°
2026-05-06 15:38 45.41841 13.11907 29785 ft 445 kts 313°
2026-05-06 15:39 45.44214 13.09044 30102 ft 447 kts 313°
2026-05-06 15:39 45.46590 13.06174 30375 ft 449 kts 312°
2026-05-06 15:39 45.48980 13.03287 30649 ft 451 kts 312°
2026-05-06 15:39 45.51376 13.00392 30952 ft 452 kts 312°
2026-05-06 15:40 45.53773 12.97493 31342 ft 451 kts 312°
2026-05-06 15:40 45.56163 12.94597 31733 ft 450 kts 312°
2026-05-06 15:40 45.58545 12.91705 32111 ft 449 kts 312°
2026-05-06 15:40 45.60923 12.88815 32495 ft 449 kts 312°
2026-05-06 15:41 45.63302 12.85920 32872 ft 448 kts 312°
2026-05-06 15:41 45.65671 12.83034 33254 ft 448 kts 312°
2026-05-06 15:41 45.68044 12.80143 33706 ft 447 kts 311°
2026-05-06 15:41 45.70408 12.77258 34076 ft 447 kts 311°
2026-05-06 15:42 45.72744 12.74402 34440 ft 446 kts 311°
2026-05-06 15:42 45.75132 12.71480 34850 ft 446 kts 312°
2026-05-06 15:42 45.77486 12.68593 35162 ft 446 kts 312°
2026-05-06 15:42 45.79844 12.65698 35460 ft 446 kts 312°
2026-05-06 15:43 45.82201 12.62807 35746 ft 446 kts 312°
2026-05-06 15:43 45.84556 12.59914 35895 ft 446 kts 312°
2026-05-06 15:43 45.89252 12.54138 35926 ft 444 kts 312°
2026-05-06 15:44 45.93939 12.48357 35925 ft 444 kts 312°
2026-05-06 15:44 45.98583 12.42599 35930 ft 444 kts 312°
2026-05-06 15:45 46.03265 12.36808 35923 ft 444 kts 312°
2026-05-06 15:45 46.07938 12.31001 35924 ft 444 kts 311°
2026-05-06 15:46 46.12637 12.25149 35920 ft 444 kts 311°
2026-05-06 15:46 46.17307 12.19327 35914 ft 444 kts 311°
2026-05-06 15:47 46.21948 12.13522 35900 ft 444 kts 311°
2026-05-06 15:47 46.26611 12.07672 35899 ft 444 kts 311°
2026-05-06 15:48 46.31279 12.01806 35894 ft 444 kts 311°
2026-05-06 15:48 46.35945 11.95923 35882 ft 445 kts 311°
2026-05-06 15:49 46.40614 11.90029 35871 ft 445 kts 311°
2026-05-06 15:49 46.45272 11.84130 35858 ft 445 kts 311°
2026-05-06 15:50 46.49882 11.78265 35871 ft 446 kts 311°
2026-05-06 15:50 46.54552 11.72327 35860 ft 446 kts 311°
2026-05-06 15:51 46.59227 11.66383 35870 ft 447 kts 311°
2026-05-06 15:51 46.63898 11.60421 35869 ft 446 kts 311°
2026-05-06 15:52 46.68565 11.54435 35874 ft 446 kts 311°
2026-05-06 15:52 46.73225 11.48439 35875 ft 446 kts 311°
2026-05-06 15:53 46.77866 11.42443 35864 ft 445 kts 311°
2026-05-06 15:53 46.82487 11.36485 35858 ft 445 kts 311°
2026-05-06 15:54 46.87129 11.30496 35849 ft 445 kts 311°
2026-05-06 15:54 46.91759 11.24492 35839 ft 445 kts 311°
2026-05-06 15:55 46.96587 11.18736 35820 ft 451 kts 317°
2026-05-06 15:55 47.01689 11.13358 35813 ft 451 kts 317°
2026-05-06 15:56 47.06785 11.07984 35797 ft 451 kts 317°
2026-05-06 15:56 47.11873 11.02586 35791 ft 452 kts 317°
2026-05-06 15:57 47.16966 10.97163 35787 ft 452 kts 317°
2026-05-06 15:57 47.20338 10.93570 35791 ft 453 kts 317°
2026-05-06 15:58 47.24837 10.88774 35794 ft 453 kts 317°
2026-05-06 15:58 47.29918 10.83355 35807 ft 453 kts 317°
2026-05-06 15:59 47.35034 10.77862 35819 ft 454 kts 317°
2026-05-06 15:59 47.40141 10.72372 35843 ft 455 kts 317°
2026-05-06 16:00 47.45256 10.66859 35862 ft 455 kts 317°
2026-05-06 16:00 47.50371 10.61336 35879 ft 455 kts 317°
2026-05-06 16:01 47.55481 10.55803 35876 ft 455 kts 317°
2026-05-06 16:01 47.59732 10.51188 35882 ft 456 kts 318°
2026-05-06 16:02 47.64848 10.45625 35884 ft 456 kts 317°
2026-05-06 16:02 47.69967 10.40037 35889 ft 457 kts 317°
2026-05-06 16:03 47.75213 10.35066 35872 ft 466 kts 330°
2026-05-06 16:03 47.81423 10.31961 35864 ft 473 kts 338°
2026-05-06 16:04 47.87738 10.29151 35858 ft 473 kts 338°
2026-05-06 16:04 47.94049 10.26318 35858 ft 474 kts 338°
2026-05-06 16:05 48.00373 10.23480 35864 ft 474 kts 338°
2026-05-06 16:05 48.06688 10.20646 35867 ft 474 kts 339°
2026-05-06 16:06 48.13002 10.17804 35861 ft 474 kts 339°
2026-05-06 16:06 48.19319 10.14956 35836 ft 474 kts 339°
2026-05-06 16:07 48.25632 10.12099 35845 ft 474 kts 339°
2026-05-06 16:07 48.31941 10.09221 35844 ft 474 kts 339°
2026-05-06 16:08 48.38257 10.06335 35846 ft 474 kts 339°
2026-05-06 16:08 48.44579 10.03462 35836 ft 474 kts 339°
2026-05-06 16:09 48.50881 10.00600 35805 ft 472 kts 339°
2026-05-06 16:09 48.57166 9.97725 35789 ft 472 kts 339°
2026-05-06 16:10 48.63460 9.94824 35792 ft 473 kts 339°
2026-05-06 16:10 48.69756 9.91910 35794 ft 473 kts 339°
2026-05-06 16:11 48.76030 9.88889 35794 ft 472 kts 337°
2026-05-06 16:11 48.82211 9.85521 35797 ft 472 kts 335°
2026-05-06 16:12 48.88368 9.82038 35801 ft 472 kts 336°
2026-05-06 16:12 48.94555 9.78625 35802 ft 473 kts 336°
2026-05-06 16:13 49.00764 9.75254 35808 ft 474 kts 336°
2026-05-06 16:13 49.06974 9.71880 35810 ft 474 kts 336°
2026-05-06 16:14 49.13140 9.68514 35813 ft 473 kts 336°
2026-05-06 16:14 49.19336 9.65102 35813 ft 473 kts 336°
2026-05-06 16:15 49.25522 9.61671 35815 ft 473 kts 336°
2026-05-06 16:15 49.31714 9.58244 35813 ft 473 kts 336°
2026-05-06 16:16 49.37906 9.54814 35815 ft 473 kts 336°
2026-05-06 16:16 49.44098 9.51375 35814 ft 473 kts 336°
2026-05-06 16:17 49.50285 9.47929 35819 ft 473 kts 336°
2026-05-06 16:17 49.56463 9.44467 35811 ft 472 kts 336°
2026-05-06 16:18 49.62875 9.42175 35810 ft 478 kts 354°
2026-05-06 16:18 49.69526 9.42682 35798 ft 480 kts
2026-05-06 16:19 49.76172 9.43749 35795 ft 480 kts
2026-05-06 16:19 49.82814 9.44811 35794 ft 480 kts
2026-05-06 16:20 49.89455 9.45872 35791 ft 479 kts
2026-05-06 16:20 49.96092 9.46932 35789 ft 479 kts
2026-05-06 16:21 50.02725 9.47265 35793 ft 475 kts 351°
2026-05-06 16:21 50.05948 9.46279 35785 ft 471 kts 340°
2026-05-06 16:21 50.09005 9.44514 35788 ft 467 kts 331°
2026-05-06 16:22 50.14344 9.39003 35784 ft 459 kts 317°
2026-05-06 16:22 50.19303 9.32721 35780 ft 459 kts 317°
2026-05-06 16:23 50.24263 9.26424 35782 ft 460 kts 317°
2026-05-06 16:23 50.29229 9.20105 35780 ft 460 kts 317°
2026-05-06 16:24 50.34190 9.13770 35780 ft 460 kts 317°
2026-05-06 16:24 50.39148 9.07410 35777 ft 461 kts 317°
2026-05-06 16:25 50.44112 9.01052 35786 ft 461 kts 317°
2026-05-06 16:25 50.49077 8.94676 35779 ft 461 kts 317°
2026-05-06 16:26 50.54041 8.88295 35783 ft 461 kts 318°
2026-05-06 16:26 50.59127 8.82107 35785 ft 462 kts 320°
2026-05-06 16:27 50.64287 8.76043 35564 ft 464 kts 320°
2026-05-06 16:27 50.66860 8.72995 35136 ft 462 kts 320°
2026-05-06 16:27 50.69422 8.69928 34721 ft 462 kts 319°
2026-05-06 16:28 50.71974 8.66850 34308 ft 462 kts 319°
2026-05-06 16:28 50.74531 8.63755 33908 ft 462 kts 319°
2026-05-06 16:28 50.77075 8.60664 33456 ft 462 kts 319°
2026-05-06 16:28 50.79629 8.57563 32991 ft 463 kts 319°
2026-05-06 16:29 50.82186 8.54451 32535 ft 464 kts 319°
2026-05-06 16:29 50.84743 8.51333 32087 ft 464 kts 319°
2026-05-06 16:29 50.87298 8.48217 31641 ft 465 kts 319°
2026-05-06 16:29 50.89861 8.45091 31208 ft 465 kts 319°
2026-05-06 16:30 50.92421 8.41966 30772 ft 463 kts 319°
2026-05-06 16:30 50.94104 8.39906 30503 ft 461 kts 319°
2026-05-06 16:30 50.97480 8.35774 29945 ft 456 kts 319°
2026-05-06 16:30 50.99987 8.32703 29471 ft 453 kts 319°
2026-05-06 16:31 51.02565 8.29852 28986 ft 452 kts 327°
2026-05-06 16:31 51.05301 8.27426 28522 ft 449 kts 329°
2026-05-06 16:31 51.07985 8.25044 28060 ft 445 kts 328°
2026-05-06 16:31 51.10677 8.22639 27602 ft 442 kts 328°
2026-05-06 16:32 51.13349 8.20249 27154 ft 439 kts 329°
2026-05-06 16:32 51.15999 8.17876 26695 ft 435 kts 329°
2026-05-06 16:32 51.18632 8.15522 26271 ft 432 kts 329°
2026-05-06 16:32 51.21248 8.13184 25843 ft 430 kts 329°
2026-05-06 16:33 51.23849 8.10854 25419 ft 427 kts 329°
2026-05-06 16:33 51.26431 8.08539 25006 ft 424 kts 329°
2026-05-06 16:33 51.28996 8.06237 24590 ft 422 kts 329°
2026-05-06 16:34 51.33987 8.01755 23812 ft 417 kts 329°
2026-05-06 16:34 51.36509 7.99478 23416 ft 415 kts 329°
2026-05-06 16:34 51.39016 7.97212 22952 ft 412 kts 329°
2026-05-06 16:34 51.41502 7.94969 22496 ft 409 kts 329°
2026-05-06 16:35 51.43804 7.92364 22035 ft 403 kts 314°
2026-05-06 16:35 51.45492 7.88856 21592 ft 395 kts 296°
2026-05-06 16:35 51.46436 7.84778 21149 ft 388 kts 279°
2026-05-06 16:35 51.46604 7.80503 20719 ft 382 kts 263°
2026-05-06 16:36 51.46331 7.76279 20297 ft 380 kts 262°
2026-05-06 16:36 51.46048 7.72079 19876 ft 379 kts 262°
2026-05-06 16:36 51.45762 7.67893 19457 ft 376 kts 262°
2026-05-06 16:36 51.45473 7.63729 19046 ft 374 kts 262°
2026-05-06 16:37 51.45188 7.59596 18659 ft 372 kts 262°
2026-05-06 16:37 51.44903 7.55476 18303 ft 370 kts 262°
2026-05-06 16:37 51.44616 7.51384 17924 ft 369 kts 262°
2026-05-06 16:37 51.44330 7.47311 17520 ft 366 kts 262°
2026-05-06 16:38 51.44043 7.43274 17122 ft 364 kts 262°
2026-05-06 16:38 51.43759 7.39253 16728 ft 361 kts 262°
2026-05-06 16:38 51.43477 7.35269 16341 ft 359 kts 262°
2026-05-06 16:38 51.43193 7.31303 15954 ft 357 kts 262°
2026-05-06 16:39 51.43003 7.28687 15700 ft 355 kts 262°
2026-05-06 16:39 51.42719 7.24754 15325 ft 353 kts 262°
2026-05-06 16:39 51.42323 7.20883 14949 ft 350 kts 252°
2026-05-06 16:39 51.41322 7.17411 14591 ft 346 kts 235°
2026-05-06 16:40 51.39779 7.14476 14225 ft 344 kts 227°
2026-05-06 16:40 51.38162 7.11663 13869 ft 342 kts 226°
2026-05-06 16:40 51.36547 7.08889 13494 ft 340 kts 226°
2026-05-06 16:40 51.34936 7.06135 13092 ft 338 kts 226°
2026-05-06 16:41 51.33326 7.03381 12696 ft 337 kts 226°
2026-05-06 16:41 51.31733 7.00655 12303 ft 335 kts 226°
2026-05-06 16:41 51.30144 6.97942 11907 ft 334 kts 226°
2026-05-06 16:41 51.28563 6.95240 11527 ft 330 kts 226°
2026-05-06 16:42 51.27006 6.92587 11153 ft 325 kts 226°
2026-05-06 16:42 51.25477 6.89987 10774 ft 315 kts 226°
2026-05-06 16:42 51.24008 6.87490 10405 ft 302 kts 227°
2026-05-06 16:42 51.22598 6.85093 10044 ft 290 kts 227°
2026-05-06 16:43 51.21415 6.83084 9728 ft 282 kts 227°
2026-05-06 16:43 51.20156 6.80775 9332 ft 272 kts 233°
2026-05-06 16:43 51.19035 6.78407 8934 ft 263 kts 233°
2026-05-06 16:43 51.17945 6.76124 8542 ft 255 kts 233°
2026-05-06 16:44 51.16887 6.73914 8157 ft 248 kts 233°
2026-05-06 16:44 51.15844 6.71739 7779 ft 246 kts 233°
2026-05-06 16:44 51.14811 6.69582 7396 ft 244 kts 233°
2026-05-06 16:44 51.13782 6.67434 7052 ft 244 kts 233°
2026-05-06 16:45 51.12752 6.65284 6683 ft 244 kts 233°
2026-05-06 16:45 51.11721 6.63132 6319 ft 244 kts 233°
2026-05-06 16:45 51.10689 6.60981 5931 ft 244 kts 233°
2026-05-06 16:45 51.09655 6.58834 5543 ft 244 kts 233°
2026-05-06 16:46 51.08620 6.56688 5160 ft 245 kts 233°
2026-05-06 16:46 51.07580 6.54531 4780 ft 253 kts 233°
2026-05-06 16:46 51.06476 6.52249 4389 ft 260 kts 233°
2026-05-06 16:46 51.05375 6.49977 4001 ft 258 kts 234°
2026-05-06 16:47 51.04647 6.47435 3608 ft 252 kts 263°
2026-05-06 16:47 51.04813 6.44743 3227 ft 244 kts 294°
2026-05-06 16:47 51.05747 6.42621 3003 ft 226 kts 319°
2026-05-06 16:47 51.07034 6.41241 3003 ft 223 kts 338°
2026-05-06 16:48 51.08519 6.40606 2998 ft 221 kts 356°
2026-05-06 16:48 51.10045 6.40761 3008 ft 220 kts 14°
2026-05-06 16:48 51.11461 6.41681 3005 ft 220 kts 32°
2026-05-06 16:48 51.12586 6.43204 2998 ft 206 kts 49°
2026-05-06 16:49 51.13437 6.44956 2999 ft 196 kts 51°
2026-05-06 16:49 51.14263 6.46661 3010 ft 193 kts 52°
2026-05-06 16:49 51.15078 6.48347 3038 ft 191 kts 52°
2026-05-06 16:49 51.15888 6.50028 3011 ft 191 kts 52°
2026-05-06 16:50 51.16697 6.51706 3003 ft 191 kts 51°
2026-05-06 16:50 51.17504 6.53381 3005 ft 191 kts 51°
2026-05-06 16:50 51.18310 6.55057 3005 ft 191 kts 51°
2026-05-06 16:50 51.19117 6.56735 3006 ft 190 kts 52°
2026-05-06 16:51 51.19885 6.58335 2999 ft 173 kts 52°
2026-05-06 16:51 51.20584 6.59791 3003 ft 157 kts 52°
2026-05-06 16:51 51.21219 6.61114 2995 ft 146 kts 52°
2026-05-06 16:51 51.21825 6.62374 3016 ft 140 kts 52°
2026-05-06 16:52 51.22405 6.63584 3021 ft 134 kts 52°
2026-05-06 16:52 51.22983 6.64790 2680 ft 146 kts 51°
2026-05-06 16:52 51.23646 6.66171 2073 ft 164 kts 51°
2026-05-06 16:52 51.24343 6.67629 1485 ft 165 kts 51°
2026-05-06 16:53 51.25006 6.69016 1197 ft 147 kts 50°
2026-05-06 16:53 51.25592 6.70243 985 ft 132 kts 50°
2026-05-06 16:53 51.26138 6.71385 817 ft 127 kts 49°
2026-05-06 16:53 51.26671 6.72498 648 ft 126 kts 50°
2026-05-06 16:54 51.27204 6.73612 479 ft 125 kts 51°
2026-05-06 16:54 51.27726 6.74720 295 ft 126 kts 50°
2026-05-06 16:54 51.28266 6.75848 138 ft 126 kts 49°
2026-05-06 16:54 51.28726 6.76803 120 ft 89 kts 52°
2026-05-06 16:55 51.28971 6.77319 115 ft 25 kts 53°
2026-05-06 16:55 51.29020 6.77507 118 ft 18 kts 103°
2026-05-06 16:55 51.28946 6.77640 118 ft 12 kts 154°
2026-05-06 16:55 51.28877 6.77588 118 ft 12 kts 231°
2026-05-06 16:56 51.28825 6.77477 118 ft 13 kts 233°
2026-05-06 16:56 51.28762 6.77346 118 ft 17 kts 232°
2026-05-06 16:56 51.28690 6.77194 117 ft 17 kts 232°
2026-05-06 16:56 51.28615 6.77038 118 ft 18 kts 233°
2026-05-06 16:57 51.28542 6.76884 116 ft 13 kts 233°
2026-05-06 16:57 51.28491 6.76783 115 ft 9 kts 219°
2026-05-06 16:57 51.28432 6.76794 117 ft 9 kts 146°
2026-05-06 16:57 51.28377 6.76858 117 ft 10 kts 150°
2026-05-06 16:58 51.28305 6.76860 118 ft 11 kts 187°
2026-05-06 16:58 51.28228 6.76845 118 ft 12 kts 187°
2026-05-06 16:58 51.28160 6.76833 118 ft 8 kts 187°
2026-05-06 16:58 51.28106 6.76811 118 ft 6 kts 197°
2026-05-06 16:59 51.28070 6.76792 118 ft 1 kts 199°
2026-05-06 16:59 51.28060 6.76784 115 ft 2 kts 213°
2026-05-06 16:59 51.28056 6.76763 117 ft 2 kts 263°
2026-05-06 16:59 51.28057 6.76734 115 ft 3 kts 274°
2026-05-06 17:00 51.28059 6.76712 115 ft 2 kts 275°
2026-05-06 17:00 51.28059 6.76699 117 ft 0 kts 276°